sat.trackr.live / text

‹ back to catalog

STARLINK-37246

NORAD 68607 · 2026-073F

PAYLOAD ACTIVE UNKNOWN

§ Identity

Operator
Country
US
Launch date
2026-04-07
Launch site
AFWTR
Launch vehicle
Mass (kg)
RCS (m²)

Purposes: comms

External: N2YO · Heavens-Above · Gunter

§ Orbital elements

Epoch: 2026-05-25T04:00:03.998880Z

Period
92.49 min
Inclination
97.2847°
Eccentricity
0.0002001
Mean motion
15.56881208 rev/d
Perigee alt
395.3 km
Apogee alt
398.0 km
Semi-major
6,774.8 km
B*
-3.0679e-2
RAAN
344.6050°
Arg perigee
86.7437°
Mean anomaly
93.6349°
Rev number
598

§ Raw data

STARLINK-372461 68607U 26073F   26145.16671295 -.01940225  00000+0 -30679-1 0  99902 68607  97.2847 344.6050 0002001  86.7437  93.6349 15.56881208  5986

JSON: /api/v1/satellites/68607 · /tle

For live sub-satellite position, see the globe view (requires WebGL).

§ Visibility from observer

Set your observer location to see the next 7 days of passes ≥ 10°. The values pass through the URL so the page stays shareable.

No JS? Fill the form by hand. The geolocation button needs JavaScript.